Terminal Aerodrome Forecast
Issued by NWS

Home | Current Version | Previous Version | Text Only | Print | Product List | Glossary On
Versions: 1 2 3 4 5 6 7 8 9 10 11 12 13 14 15
000
FTUS45 KVEF 221100
TAFHND
TAF
KHND 221120Z 2212/2312 04005KT P6SM SKC
     FM222000 08008KT P6SM SKC
     FM230100 15008KT P6SM SKC=

USA.gov is the U.S. government's official web portal to all federal, state and local government web resources and services.